| time (UTC) | temp F | wind direction | speed MPH | gust MPH | rain 1hr in | rain 24hr in | rain mn in | humidity % | barometer mb |
| 20260506204548 | 57 | 353 | 8.0 | 15.0 | 0.00 | 0.61 | 0.61 | 98 | 937.7 |
| 20260506203527 | 57 | 344 | 6.0 | 12.0 | 0.00 | 0.61 | 0.61 | 98 | 937.9 |
| 20260506202609 | 57 | 359 | 7.0 | 13.0 | 0.00 | 0.61 | 0.61 | 98 | 938.0 |
| 20260506201609 | 57 | 356 | 7.0 | 14.0 | 0.00 | 0.60 | 0.60 | 98 | 938.0 |
| 20260506200536 | 57 | 352 | 9.0 | 12.0 | 0.00 | 0.60 | 0.60 | 98 | 938.1 |
| 20260506195523 | 57 | 359 | 7.0 | 14.0 | 0.00 | 0.60 | 0.60 | 98 | 938.0 |
| 20260506194651 | 57 | 346 | 8.0 | 14.0 | 0.00 | 0.60 | 0.60 | 98 | 938.1 |
| 20260506193609 | 57 | 337 | 8.0 | 12.0 | 0.00 | 0.60 | 0.60 | 98 | 938.3 |
| 20260506192532 | 57 | 335 | 7.0 | 17.0 | 0.00 | 0.60 | 0.60 | 98 | 938.2 |
| 20260506191518 | 56 | 356 | 9.0 | 13.0 | 0.00 | 0.60 | 0.60 | 98 | 938.2 |
| 20260506190606 | 56 | 339 | 6.0 | 11.0 | 0.00 | 0.60 | 0.60 | 97 | 938.3 |
| 20260506185553 | 56 | 321 | 6.0 | 11.0 | 0.00 | 0.60 | 0.60 | 97 | 938.4 |
| 20260506184540 | 55 | 338 | 8.0 | 13.0 | 0.00 | 0.60 | 0.60 | 97 | 938.4 |
| 20260506183525 | 56 | 354 | 7.0 | 14.0 | 0.00 | 0.60 | 0.60 | 97 | 938.3 |
| 20260506182613 | 57 | 330 | 8.0 | 14.0 | 0.03 | 0.60 | 0.60 | 97 | 938.2 |
| 20260506181620 | 57 | 331 | 7.0 | 15.0 | 0.05 | 0.60 | 0.60 | 98 | 938.4 |
| 20260506180545 | 60 | 322 | 7.0 | 13.0 | 0.05 | 0.59 | 0.59 | 97 | 938.6 |
| 20260506175522 | 59 | 335 | 6.0 | 15.0 | 0.05 | 0.59 | 0.59 | 97 | 938.5 |
| 20260506174610 | 59 | 343 | 9.0 | 15.0 | 0.05 | 0.59 | 0.59 | 97 | 938.6 |
| 20260506173601 | 58 | 340 | 7.0 | 12.0 | 0.05 | 0.59 | 0.59 | 97 | 938.6 |
| 20260506172548 | 59 | 325 | 8.0 | 17.0 | 0.03 | 0.57 | 0.57 | 97 | 939.1 |
| 20260506171532 | 59 | 340 | 8.0 | 12.0 | 0.00 | 0.54 | 0.54 | 96 | 938.3 |
| 20260506170519 | 60 | 350 | 8.0 | 15.0 | 0.00 | 0.54 | 0.54 | 96 | 937.9 |
| 20260506165601 | 60 | 337 | 6.0 | 11.0 | 0.00 | 0.54 | 0.54 | 96 | 938.2 |
| 20260506164539 | 61 | 337 | 8.0 | 12.0 | 0.00 | 0.54 | 0.54 | 95 | 938.3 |
| 20260506163526 | 62 | 340 | 7.0 | 12.0 | 0.00 | 0.54 | 0.54 | 95 | 938.3 |
| 20260506162614 | 62 | 337 | 7.0 | 12.0 | 0.00 | 0.54 | 0.54 | 95 | 938.3 |
| 20260506161601 | 62 | 339 | 9.0 | 14.0 | 0.00 | 0.54 | 0.54 | 95 | 938.3 |
| 20260506160548 | 62 | 360 | 4.0 | 9.0 | 0.00 | 0.54 | 0.54 | 96 | 937.6 |
| 20260506155554 | 61 | 13 | 4.0 | 8.0 | 0.01 | 0.54 | 0.54 | 96 | 937.4 |
| 20260506154521 | 60 | 339 | 4.0 | 6.0 | 0.11 | 0.54 | 0.54 | 97 | 937.4 |
| 20260506153609 | 59 | 350 | 4.0 | 8.0 | 0.52 | 0.54 | 0.54 | 97 | 937.2 |
| 20260506152554 | 60 | 30 | 6.0 | 9.0 | 0.54 | 0.54 | 0.54 | 96 | 937.5 |
| 20260506151621 | 58 | 359 | 7.0 | 15.0 | 0.54 | 0.54 | 0.54 | 97 | 937.4 |
| 20260506150518 | 58 | 359 | 7.0 | 13.0 | 0.54 | 0.54 | 0.54 | 97 | 937.8 |
| 20260506145605 | 58 | 316 | 8.0 | 19.0 | 0.53 | 0.53 | 0.53 | 96 | 938.0 |
| 20260506144551 | 59 | 314 | 12.0 | 21.0 | 0.43 | 0.44 | 0.44 | 97 | 938.6 |
| 20260506143532 | 61 | 302 | 11.0 | 27.0 | 0.02 | 0.02 | 0.02 | 97 | 937.2 |
| 20260506142520 | 62 | 6 | 6.0 | 11.0 | 0.00 | 0.01 | 0.01 | 97 | 937.3 |
| 20260506141622 | 61 | 26 | 5.0 | 9.0 | 0.00 | 0.01 | 0.01 | 97 | 936.8 |
| 20260506140546 | 69 | 306 | 9.0 | 27.0 | 0.00 | 0.00 | 0.00 | 97 | 938.6 |
| 20260506135534 | 71 | 272 | 2.0 | 5.0 | 0.00 | 0.00 | 0.00 | 98 | 938.2 |
| 20260506134517 | 70 | 177 | 2.0 | 6.0 | 0.00 | 0.00 | 0.00 | 98 | 937.7 |
| 20260506133605 | 71 | 137 | 2.0 | 7.0 | 0.00 | 0.00 | 0.00 | 98 | 937.1 |
| 20260506132546 | 71 | 358 | 2.0 | 4.0 | 0.00 | 0.00 | 0.00 | 98 | 936.9 |
| 20260506131553 | 71 | 341 | 2.0 | 5.0 | 0.00 | 0.00 | 0.00 | 98 | 936.6 |
| 20260506130615 | 71 | 342 | 3.0 | 4.0 | 0.00 | 0.00 | 0.00 | 97 | 936.6 |
| 20260506125557 | 70 | 338 | 3.0 | 4.0 | 0.00 | 0.00 | 0.00 | 97 | 937.0 |
| 20260506124541 | 70 | 350 | 2.0 | 4.0 | 0.00 | 0.00 | 0.00 | 97 | 936.8 |
| 20260506123528 | 70 | 324 | 2.0 | 4.0 | 0.00 | 0.00 | 0.00 | 97 | 936.5 |
| 20260506122615 | 70 | 333 | 2.0 | 3.0 | 0.00 | 0.00 | 0.00 | 97 | 936.6 |
| 20260506121600 | 70 | 275 | 1.0 | 3.0 | 0.00 | 0.00 | 0.00 | 97 | 936.8 |
| 20260506120549 | 70 | 301 | 2.0 | 4.0 | 0.00 | 0.00 | 0.00 | 97 | 936.8 |
| 20260506115538 | 70 | 222 | 3.0 | 6.0 | 0.00 | 0.00 | 0.00 | 97 | 936.7 |
| 20260506114613 | 70 | 210 | 4.0 | 8.0 | 0.00 | 0.00 | 0.00 | 97 | 936.7 |
| 20260506113554 | 70 | 224 | 4.0 | 7.0 | 0.00 | 0.00 | 0.00 | 97 | 936.7 |
| 20260506112541 | 70 | 249 | 2.0 | 5.0 | 0.00 | 0.00 | 0.00 | 97 | 936.6 |
| 20260506111531 | 70 | 168 | 2.0 | 5.0 | 0.00 | 0.00 | 0.00 | 97 | 936.8 |
| 20260506110617 | 71 | 204 | 5.0 | 11.0 | 0.00 | 0.00 | 0.00 | 97 | 936.8 |
| 20260506105555 | 71 | 217 | 3.0 | 8.0 | 0.00 | 0.00 | 0.00 | 97 | 936.7 |
| 20260506104541 | 71 | 194 | 4.0 | 10.0 | 0.00 | 0.00 | 0.00 | 97 | 936.8 |
| 20260506103525 | 71 | 183 | 7.0 | 13.0 | 0.00 | 0.00 | 0.00 | 97 | 936.6 |
| 20260506102515 | 71 | 199 | 9.0 | 14.0 | 0.00 | 0.00 | 0.00 | 97 | 936.5 |
| 20260506101552 | 71 | 182 | 7.0 | 13.0 | 0.00 | 0.00 | 0.00 | 97 | 936.5 |
| 20260506100534 | 71 | 172 | 6.0 | 15.0 | 0.00 | 0.00 | 0.00 | 97 | 936.4 |
| 20260506095642 | 71 | 179 | 6.0 | 13.0 | 0.00 | 0.00 | 0.00 | 96 | 936.3 |
| 20260506094701 | 71 | 174 | 7.0 | 11.0 | 0.00 | 0.00 | 0.00 | 96 | 936.2 |
| 20260506093541 | 71 | 178 | 7.0 | 13.0 | 0.00 | 0.00 | 0.00 | 96 | 936.2 |
| 20260506092532 | 71 | 175 | 9.0 | 15.0 | 0.00 | 0.00 | 0.00 | 95 | 936.1 |
| 20260506091632 | 71 | 177 | 9.0 | 16.0 | 0.00 | 0.00 | 0.00 | 95 | 936.3 |
| 20260506090601 | 71 | 177 | 8.0 | 15.0 | 0.00 | 0.00 | 0.00 | 95 | 936.2 |
| 20260506085542 | 71 | 177 | 10.0 | 17.0 | 0.00 | 0.00 | 0.00 | 95 | 936.1 |
| 20260506084531 | 71 | 174 | 8.0 | 17.0 | 0.00 | 0.00 | 0.00 | 95 | 935.9 |
| 20260506083609 | 72 | 176 | 8.0 | 13.0 | 0.00 | 0.00 | 0.00 | 94 | 936.0 |
| 20260506082559 | 72 | 177 | 7.0 | 14.0 | 0.00 | 0.00 | 0.00 | 94 | 935.9 |
| 20260506081545 | 72 | 170 | 7.0 | 12.0 | 0.00 | 0.00 | 0.00 | 94 | 935.8 |
| 20260506080533 | 72 | 161 | 6.0 | 13.0 | 0.00 | 0.00 | 0.00 | 94 | 935.9 |
| 20260506072534 | 72 | 169 | 8.0 | 14.0 | 0.00 | 0.00 | 0.00 | 94 | 936.1 |
| 20260506071515 | 72 | 173 | 7.0 | 13.0 | 0.00 | 0.00 | 0.00 | 94 | 936.1 |
| 20260506070603 | 72 | 174 | 6.0 | 12.0 | 0.00 | 0.00 | 0.00 | 94 | 936.0 |
| 20260506061537 | 72 | 172 | 10.0 | 16.0 | 0.00 | 0.00 | 0.00 | 94 | 936.0 |
| 20260506060523 | 72 | 176 | 8.0 | 17.0 | 0.00 | 0.00 | 0.00 | 93 | 936.0 |
| 20260506050548 | 71 | 175 | 5.0 | 7.0 | 0.00 | 0.00 | 0.00 | 90 | 935.8 |
| 20260506044523 | 71 | 163 | 3.0 | 6.0 | 0.00 | 0.00 | 0.00 | 89 | 935.8 |
| 20260506043611 | 71 | 176 | 3.0 | 6.0 | 0.00 | 0.00 | 0.00 | 87 | 935.9 |
| 20260506042558 | 72 | 167 | 3.0 | 6.0 | 0.00 | 0.00 | 0.00 | 86 | 935.8 |
| 20260506041542 | 72 | 163 | 2.0 | 6.0 | 0.00 | 0.00 | 0.00 | 86 | 935.7 |
| 20260506040523 | 72 | 178 | 2.0 | 6.0 | 0.00 | 0.00 | 0.00 | 85 | 935.6 |
| 20260506035614 | 72 | 168 | 2.0 | 6.0 | 0.00 | 0.00 | 0.00 | 86 | 935.5 |
| 20260506034658 | 72 | 180 | 4.0 | 6.0 | 0.00 | 0.00 | 0.00 | 85 | 935.4 |
| 20260506033548 | 72 | 181 | 4.0 | 7.0 | 0.00 | 0.00 | 0.00 | 86 | 935.4 |
| 20260506032536 | 72 | 176 | 4.0 | 6.0 | 0.00 | 0.00 | 0.00 | 85 | 935.4 |
| 20260506031522 | 73 | 177 | 3.0 | 5.0 | 0.00 | 0.00 | 0.00 | 84 | 935.2 |
| 20260506030609 | 73 | 186 | 3.0 | 6.0 | 0.00 | 0.00 | 0.00 | 84 | 935.0 |
| 20260506025550 | 73 | 172 | 3.0 | 6.0 | 0.00 | 0.00 | 0.00 | 83 | 934.9 |
| 20260506024537 | 73 | 173 | 3.0 | 6.0 | 0.00 | 0.00 | 0.00 | 83 | 934.9 |
| 20260506023526 | 74 | 182 | 4.0 | 7.0 | 0.00 | 0.00 | 0.00 | 82 | 934.8 |
| 20260506022616 | 74 | 175 | 4.0 | 7.0 | 0.00 | 0.00 | 0.00 | 82 | 934.5 |
| 20260506021554 | 74 | 181 | 3.0 | 5.0 | 0.00 | 0.00 | 0.00 | 81 | 934.5 |
| 20260506020551 | 75 | 190 | 2.0 | 6.0 | 0.00 | 0.00 | 0.00 | 80 | 934.4 |
| 20260506015527 | 75 | 171 | 3.0 | 5.0 | 0.00 | 0.00 | 0.00 | 78 | 934.4 |
| 20260506014614 | 76 | 148 | 2.0 | 5.0 | 0.00 | 0.00 | 0.00 | 77 | 934.3 |
| 20260506013600 | 76 | 246 | 1.0 | 4.0 | 0.00 | 0.00 | 0.00 | 76 | 934.1 |
| 20260506012551 | 76 | 177 | 1.0 | 4.0 | 0.00 | 0.00 | 0.00 | 75 | 933.9 |
| 20260506011538 | 77 | 180 | 2.0 | 5.0 | 0.00 | 0.00 | 0.00 | 74 | 933.7 |
| 20260506010520 | 78 | 182 | 3.0 | 6.0 | 0.00 | 0.00 | 0.00 | 71 | 933.7 |
| 20260506005608 | 78 | 159 | 2.0 | 8.0 | 0.00 | 0.00 | 0.00 | 71 | 933.7 |
| 20260506004601 | 78 | 184 | 5.0 | 8.0 | 0.00 | 0.00 | 0.00 | 70 | 933.7 |
| 20260506003533 | 79 | 184 | 6.0 | 11.0 | 0.00 | 0.00 | 0.00 | 69 | 933.7 |
| 20260506002521 | 80 | 174 | 7.0 | 13.0 | 0.00 | 0.00 | 0.00 | 68 | 933.9 |
| 20260506001607 | 80 | 159 | 5.0 | 12.0 | 0.00 | 0.00 | 0.00 | 68 | 933.9 |
| 20260506000556 | 80 | 187 | 5.0 | 10.0 | 0.00 | 0.00 | 0.00 | 68 | 933.9 |
| 20260505235530 | 81 | 174 | 6.0 | 11.0 | 0.00 | 0.00 | 0.00 | 66 | 934.0 |
| 20260505234521 | 81 | 178 | 8.0 | 11.0 | 0.00 | 0.00 | 0.00 | 66 | 933.9 |
| 20260505233603 | 81 | 188 | 7.0 | 12.0 | 0.00 | 0.00 | 0.00 | 65 | 933.7 |
| 20260505232555 | 81 | 193 | 6.0 | 10.0 | 0.00 | 0.00 | 0.00 | 66 | 933.8 |
| 20260505231534 | 81 | 185 | 7.0 | 13.0 | 0.00 | 0.00 | 0.00 | 64 | 933.8 |
| 20260505230635 | 81 | 180 | 6.0 | 12.0 | 0.00 | 0.00 | 0.00 | 64 | 933.7 |
| 20260505225559 | 81 | 184 | 4.0 | 10.0 | 0.00 | 0.00 | 0.00 | 65 | 933.6 |
| 20260505224614 | 81 | 186 | 5.0 | 12.0 | 0.00 | 0.00 | 0.00 | 65 | 933.7 |
| 20260505223525 | 82 | 180 | 7.0 | 12.0 | 0.00 | 0.00 | 0.00 | 63 | 933.8 |
| 20260505222615 | 81 | 181 | 6.0 | 11.0 | 0.00 | 0.00 | 0.00 | 64 | 933.7 |
| 20260505221614 | 82 | 176 | 6.0 | 12.0 | 0.00 | 0.00 | 0.00 | 64 | 933.8 |
| 20260505220544 | 82 | 192 | 5.0 | 11.0 | 0.00 | 0.00 | 0.00 | 64 | 933.9 |
| 20260505215551 | 81 | 204 | 7.0 | 13.0 | 0.00 | 0.00 | 0.00 | 64 | 933.9 |
| 20260505214516 | 82 | 189 | 6.0 | 12.0 | 0.00 | 0.00 | 0.00 | 64 | 934.0 |
| 20260505213613 | 81 | 185 | 4.0 | 13.0 | 0.00 | 0.00 | 0.00 | 65 | 934.1 |
| 20260505212631 | 81 | 211 | 9.0 | 14.0 | 0.00 | 0.00 | 0.00 | 64 | 934.3 |
| 20260505211538 | 82 | 187 | 7.0 | 13.0 | 0.00 | 0.00 | 0.00 | 63 | 934.3 |
| 20260505210529 | 82 | 174 | 6.0 | 14.0 | 0.00 | 0.00 | 0.00 | 63 | 934.3 |
| 20260505205654 | 82 | 201 | 7.0 | 12.0 | 0.00 | 0.00 | 0.00 | 63 | 934.5 |